Home   Weather   Lakeland   Past weeks

Flag for USA Past Weather in Lakeland, Florida, USA — Yesterday and Last 2 Weeks

Now
72 °F

Rain. Partly cloudy.


Feels Like: 65 °F
Forecast: 76 / 83 °F
Wind: 10 mph from South

Location: Lakeland Regional

Current Time: Aug 31, 2016 at 11:51:52 PM

Latest Report: Aug 31, 2016 at 11:35 PM


Visibility: 10 mi

Pressure: 29.99 "Hg

Humidity: 100%

Dew Point: 72 °F

Location of LakelandLocation

Past Weather in Lakeland — Graph

°F

Lakeland Temperature Yesterday

Maximum temperature yesterday: 86 °F (at 2:54 PM)
Minimum temperature yesterday: 73 °F (at 10:55 PM)
Average temperature yesterday: 77 °F

High & Low Weather Summary for the Past Weeks

 TemperatureHumidityPressure
High93 °F (Aug 19, 4:45 PM)100% (Aug 17, 2:55 AM)30.19 "Hg (Aug 17, 2:55 AM)
Low72 °F (Aug 31, 10:35 PM)46% (Aug 19, 2:55 PM)29.89 "Hg (Aug 30, 2:54 PM)
Average80 °F86%30.03 "Hg
* Reported Aug 16 10:35 PM — Aug 31 10:35 PM, Lakeland, Weather by CustomWeather, © 2016

Note: Actual official high and low records may vary slightly from our data, if they occured in-between our weather recording intervals... More about our weather records

Advertising

Lakeland Weather History for the Previous 24 Hours

Scroll right to see more
 ConditionsComfort  
Time TempWeatherWind HumidityBarometerVisibility
10:35 PM
Wed, Aug 31
72 °FLight rain. Passing clouds.6 mph100%29.96 "Hg10 mi
9:45 PM73 °FRain. Mostly cloudy.6 mph100%29.96 "Hg5 mi
8:45 PM73 °FHeavy rain. Mostly cloudy.7 mph100%29.96 "Hg2 mi
6:47 PM73 °FRain. Mostly cloudy.5 mph100%29.92 "Hg7 mi
5:45 PM73 °FHeavy rain. Low clouds.7 mph100%29.91 "Hg3 mi
4:50 PM75 °FRain. Low clouds.8 mph100%29.92 "Hg5 mi
3:50 PM75 °FRain. Partly sunny.5 mph100%29.93 "Hg7 mi
2:45 PM73 °FRain. Mostly cloudy.6 mph100%29.93 "Hg3 mi
1:45 PM79 °FLight rain. Cloudy.5 mph100%29.95 "Hg10 mi
12:50 PM79 °FLight rain. Scattered clouds.6 mph100%29.95 "Hg10 mi
11:50 AM77 °FLight rain. Scattered clouds.6 mph100%29.94 "Hg10 mi
10:50 AM75 °FLight rain. Partly sunny.No wind100%29.94 "Hg7 mi
9:50 AM73 °FLight rain. Scattered clouds.No wind100%29.95 "Hg10 mi
8:50 AM73 °FLight rain. More clouds than sun.No wind100%29.93 "Hg7 mi
7:50 AM73 °FMostly cloudy.8 mph100%29.92 "Hg3 mi
5:54 AM75 °FOvercast.8 mph100%29.90 "Hg7 mi
5:35 AM73 °FThundershowers. Mostly cloudy.8 mph100%29.91 "Hg10 mi
5:15 AM73 °FDrizzle. Overcast.10 mph100%29.90 "Hg7 mi
4:55 AM73 °FLight rain. Overcast.9 mph100%29.89 "Hg10 mi
4:35 AM73 °FLight rain. Overcast.7 mph100%29.90 "Hg10 mi
4:15 AM73 °FOvercast.9 mph100%29.90 "Hg10 mi
3:55 AM73 °FRain. Overcast.9 mph100%29.90 "Hg7 mi
3:35 AM73 °FDrizzle. Overcast.7 mph100%29.91 "Hg7 mi
3:15 AM73 °FOvercast.7 mph100%29.91 "Hg10 mi
2:55 AM73 °FOvercast.7 mph100%29.92 "Hg10 mi
2:35 AM73 °FMostly cloudy.7 mph100%29.92 "Hg10 mi
2:15 AM73 °FLight rain. Low clouds.8 mph100%29.92 "Hg10 mi
1:55 AM73 °FHeavy rain. Low clouds.7 mph100%29.92 "Hg5 mi
1:35 AM73 °FRain. Low clouds.3 mph100%29.93 "Hg5 mi
1:15 AM73 °FLow clouds.5 mph100%29.93 "Hg10 mi
12:55 AM73 °FLight rain. Mostly cloudy.6 mph100%29.93 "Hg10 mi
12:35 AM73 °FHeavy rain. Mostly cloudy.5 mph100%29.94 "Hg2 mi
12:15 AM73 °FHeavy rain. Mostly cloudy.7 mph100%29.94 "Hg1 mi
11:55 PM
Tue, Aug 30
73 °FHeavy rain. Mostly cloudy.6 mph100%29.95 "Hg2 mi
11:35 PM73 °FOvercast.5 mph100%29.94 "Hg10 mi
11:15 PM73 °FOvercast.5 mph100%29.94 "Hg10 mi
Weather by CustomWeather, © 2016

See weather overviewHow to use our weather pages